Regional Weather Roundup
Issued by NWS

Home | Current Version | Previous Version | Graphics & Text | Print | Product List | Glossary On
Versions: 1 2 3 4 5 6 7 8 9 10 11 12 13 14 15 16 17 18 19 20 21 22 23 24 25 26 27 28 29 30 31 32 33 34 35 36 37 38 39 40 41 42
000
ASUS45 KBOU 210410
RWRCO

WEATHER ROUNDUP FOR COLORADO
NATIONAL WEATHER SERVICE PUEBLO CO
900 PM MST TUE FEB 20 2018

NOTE: "FAIR" INDICATES FEW OR NO CLOUDS BELOW 12000 FEET WITH NO
SIGNIFICANT WEATHER AND/OR OBSTRUCTIONS TO VISIBILITY.

COZ001>005-013-030-031-210500-
...NORTHWEST COLORADO...

CITY           SKY/WX    TMP DP  RH WIND       PRES   REMARKS
CRAIG          CLEAR     -9 -12  87 W3        30.10R
HAYDEN         CLEAR      4  -2  76 NE7       30.09R WCI  -8
MEEKER         CLEAR      2  -5  72 CALM      30.08R
RABBIT EARS PA NOT AVBL
STEAMBOAT SPGS FAIR       4  -1  81 CALM      30.06R
WALDEN         FAIR      -4 -11  71 SE7       30.00R WCI -18
$$

COZ006>008-011-210500-
...WEST CENTRAL VALLEYS...

CITY           SKY/WX    TMP DP  RH WIND       PRES   REMARKS
GRAND JUNCTION CLEAR     23  18  81 SE10      30.10R WCI  12
MONTROSE       MOCLDY    17  16  95 SE6       30.14R WCI   9
EAGLE          PTCLDY    17   9  70 CALM      30.09R
RIFLE          CLEAR     13   4  67 SE6       30.10R WCI   4
DELTA          NOT AVBL
NUCLA          FAIR      19  18  93 SE9       30.13R WCI   9
$$

COZ017>023-064>068-210500-
...SOUTHWEST COLORADO...

CITY           SKY/WX    TMP DP  RH WIND       PRES   REMARKS
DURANGO        PTCLDY    17  12  80 E3        30.07R
CORTEZ         CLEAR     16  10  77 NE6       30.08R WCI   7
PAGOSA SPRINGS FAIR      11   5  77 CALM      30.06R
TELLURIDE      CLEAR     11  -1  58 SE6       30.00R WCI   1
WOLF CREEK PAS CLOUDY    -2  -4  92 SW20G32   29.90R WCI -25
$$

COZ009-010-012-014-032>034-037-058>063-210500-
...CENTRAL COLORADO...

CITY           SKY/WX    TMP DP  RH WIND       PRES   REMARKS
ASPEN          CLOUDY    10   3  73 S8        30.01R WCI  -2
BUENA VISTA    FAIR      15  -2  48 CALM      30.00R
COPPER MTN     PTCLDY     1 -11  55 SW8G16    29.82R WCI -12
BERTHOUD PASS  FAIR      -8 -18  59 W17       29.79R WCI -31
COTTONWOOD PAS CLOUDY    14   3  62 W6        29.93R WCI   5
GUNNISON       CLEAR      8   2  76 NE5       30.04R WCI   0
KREMMLING      CLOUDY    14   9  79 E3        30.05R
LEADVILLE      PTCLDY    -7 -12  79 NE10      29.90R WCI -25
MONARCH PASS   MOCLDY     0  -6  78 W18G25    29.94R WCI -22
SALIDA         FAIR      17   4  56 SW8       30.09R WCI   7
SUNLIGHT       MOCLDY     0  -6  78 SW9       29.93S WCI -16
WILKERSON PASS PTCLDY     1  -9  60 SW8       29.88R WCI -12
$$

COZ069>075-210500-
...SAN LUIS VALLEY/SANGRE DE CRISTO MOUNTAINS...

CITY           SKY/WX    TMP DP  RH WIND       PRES   REMARKS
ALAMOSA        CLEAR     13   3  64 S8        30.02R WCI   2
DEL NORTE      FAIR      10   0  62 W7        30.03R WCI   0
LA VETA PASS   PTCLDY     9  -2  61 S14G26    30.05R WCI  -8
SAGUACHE       CLEAR     12   3  67 NW10      30.03R WCI  -1
$$

COZ035-036-038>040-210500-
...NORTHERN COLORADO FRONT RANGE...

CITY           SKY/WX    TMP DP  RH WIND       PRES   REMARKS
DENVER INTL AP MOCLDY     5   0  79 E7        30.12R WCI  -7
DMNS CITY PARK NOT AVBL
AURORA         MOCLDY     9   5  84 SE3       30.12R
FRONT RANGE AP NOT AVBL
ERIE MUNI ARPT FAIR       0  -4  84 CALM      30.22R
BOULDER MUN AP FAIR       5   1  85 N5        30.14R WCI  -4
CENTENNIAL     LGT SNOW  14  11  87 W3        30.09R FOG
BROOMFIELD     PTCLDY   N/A N/A N/A CALM      30.11R
LOVELAND       CLEAR      3  -3  76 SE5       30.17R WCI  -6
LONGMONT       FAIR       3  -2  79 CALM      30.19R
$$

COZ041-046-047-076>085-087-088-210500-
...PIKES PEAK/PALMER DIVIDE AND SOUTHERN FOOTHILLS...

CITY           SKY/WX    TMP DP  RH WIND       PRES   REMARKS
COLO. SPRINGS  LGT SNOW  14  11  87 S12       30.14R FOG     WCI   0
A. F. ACADEMY  CLOUDY    13  10  85 S13       30.10R BLWGSNOWWCI  -1
SCHRIEVER AFB  NOT AVBL
CHEYENNE MTN   NOT AVBL
ELLICOTT         N/A    N/A N/A N/A S5          N/A
FALCON         FLURRIES  12  10  92 MISG      30.10R
FORT CARSON    CLOUDY    15  10  79 S9        30.15R WCI   3
LIMON          CLEAR      1  -3  83 S3        30.18R
MONUMENT HILL  LGT SNOW  12  10  92 S17G24    30.06R WCI  -5
CANON CITY     FLURRIES  19  12  73 E6        30.18R WCI  11
WALSENBURG     CLOUDY    12  10  92 N3        30.15R
TRINIDAD       CLOUDY    16   9  74 N5        30.14R WCI   9
$$

COZ042>045-048>051-090-091-210500-
...NORTHEAST COLORADO...

CITY           SKY/WX    TMP DP  RH WIND       PRES   REMARKS
GREELEY ARPT   NOT AVBL
AKRON          PTCLDY     3  -4  72 S8        30.21R WCI -10
BURLINGTON     MOCLDY    -4  -8  83 W8        30.25R WCI -19
WRAY           FAIR       3   0  85 CALM      30.30R
YUMA           NOT AVBL
STERLING       FAIR       1  -4  78 SW3       30.25R
HOLYOKE        FAIR       5  -2  72 S5        30.29R WCI  -4
FORT MORGAN    FAIR       6  -2  70 CALM      30.23R
$$

COZ086-089-092>099-210500-
...SOUTHEAST COLORADO...

CITY           SKY/WX    TMP DP  RH WIND       PRES   REMARKS
PUEBLO         CLOUDY    19  10  68 SE3       30.22R
LA JUNTA       PTCLDY    13   8  81 NE6       30.24R WCI   4
LAMAR          CLOUDY    18   4  54 NE8       30.26R WCI   8
SPRINGFIELD      N/A      8  -2  63 N8        30.21R WCI  -4
$$





USA.gov is the U.S. government's official web portal to all federal, state and local government web resources and services.